BPOBER EDOY-EDOY

Flight info

Callsign BPOBER
Flight time 0h 44m
Altitude 2500
Route VFR POLICE
Aircraft EC35/L-S/G

Departure

Time 2026-04-23 18:05
Airport Ahrensfelde Heliport (EDOY)

Arrival

Time 2026-04-23 18:50
Airport Ahrensfelde Heliport (EDOY)
Time Latitude Longitude Altitude Speed Heading
2026-04-23 18:02 52.60098 13.57664 228 ft 0 kts 311°
2026-04-23 18:05 52.60161 13.57615 303 ft 14 kts 298°
2026-04-23 18:05 52.60178 13.57502 348 ft 48 kts 268°
2026-04-23 18:05 52.60005 13.56691 501 ft 93 kts 247°
2026-04-23 18:06 52.59657 13.55684 875 ft 107 kts 244°
2026-04-23 18:06 52.59240 13.54631 1411 ft 113 kts 243°
2026-04-23 18:06 52.58674 13.53697 1742 ft 123 kts 223°
2026-04-23 18:06 52.57820 13.53163 1880 ft 142 kts 197°
2026-04-23 18:07 52.56770 13.52944 1915 ft 159 kts 191°
2026-04-23 18:07 52.55623 13.52784 1931 ft 168 kts 189°
2026-04-23 18:07 52.54459 13.52624 1945 ft 168 kts 189°
2026-04-23 18:07 52.53293 13.52486 1960 ft 168 kts 189°
2026-04-23 18:08 52.52143 13.52145 2030 ft 168 kts 200°
2026-04-23 18:08 52.51048 13.51460 2062 ft 168 kts 211°
2026-04-23 18:08 52.50034 13.50502 2022 ft 168 kts 218°
2026-04-23 18:08 52.49032 13.49507 1957 ft 168 kts 218°
2026-04-23 18:09 52.48030 13.48510 1896 ft 168 kts 218°
2026-04-23 18:09 52.47041 13.47526 1827 ft 168 kts 217°
2026-04-23 18:09 52.46032 13.46552 1755 ft 168 kts 216°
2026-04-23 18:09 52.44997 13.45593 1725 ft 168 kts 215°
2026-04-23 18:10 52.43987 13.44671 1716 ft 168 kts 215°
2026-04-23 18:10 52.42962 13.43741 1707 ft 168 kts 216°
2026-04-23 18:10 52.41898 13.42990 1613 ft 166 kts 199°
2026-04-23 18:10 52.40746 13.43006 1492 ft 167 kts 171°
2026-04-23 18:11 52.39699 13.43791 1367 ft 167 kts 145°
2026-04-23 18:11 52.38944 13.45222 1291 ft 167 kts 117°
2026-04-23 18:11 52.38807 13.47003 1430 ft 152 kts 73°
2026-04-23 18:11 52.39190 13.48607 1334 ft 150 kts 60°
2026-04-23 18:12 52.39605 13.50156 1329 ft 147 kts 60°
2026-04-23 18:12 52.40002 13.51675 1335 ft 144 kts 60°
2026-04-23 18:12 52.40406 13.53162 1345 ft 142 kts 59°
2026-04-23 18:12 52.40823 13.54639 1343 ft 143 kts 59°
2026-04-23 18:13 52.41211 13.56130 1340 ft 142 kts 61°
2026-04-23 18:13 52.41598 13.57608 1344 ft 141 kts 60°
2026-04-23 18:13 52.41996 13.59076 1355 ft 141 kts 58°
2026-04-23 18:13 52.42413 13.60546 1354 ft 143 kts 57°
2026-04-23 18:14 52.42833 13.62026 1335 ft 142 kts 59°
2026-04-23 18:14 52.43180 13.63526 1330 ft 139 kts 64°
2026-04-23 18:14 52.43496 13.65029 1349 ft 140 kts 64°
2026-04-23 18:14 52.43821 13.66555 1353 ft 143 kts 64°
2026-04-23 18:15 52.44149 13.68107 1349 ft 145 kts 65°
2026-04-23 18:15 52.44478 13.69670 1341 ft 145 kts 65°
2026-04-23 18:15 52.44691 13.71238 1295 ft 138 kts 86°
2026-04-23 18:15 52.44311 13.72596 1305 ft 131 kts 139°
2026-04-23 18:16 52.43590 13.73511 1362 ft 133 kts 142°
2026-04-23 18:16 52.42847 13.74462 1376 ft 138 kts 142°
2026-04-23 18:16 52.42020 13.75173 1367 ft 138 kts 178°
2026-04-23 18:17 52.41361 13.72804 1333 ft 145 kts 309°
2026-04-23 18:17 52.42269 13.72332 1329 ft 144 kts 14°
2026-04-23 18:17 52.42920 13.73466 1328 ft 143 kts 78°
2026-04-23 18:17 52.42577 13.74907 1330 ft 143 kts 142°
2026-04-23 18:18 52.41639 13.75021 1332 ft 143 kts 207°
2026-04-23 18:18 52.41176 13.73702 1333 ft 143 kts 271°
2026-04-23 18:18 52.41710 13.72436 1334 ft 143 kts 336°
2026-04-23 18:18 52.42645 13.72710 1335 ft 143 kts 42°
2026-04-23 18:19 52.42880 13.74199 1334 ft 143 kts 107°
2026-04-23 18:19 52.42174 13.75190 1333 ft 143 kts 170°
2026-04-23 18:19 52.41306 13.74556 1333 ft 142 kts 236°
2026-04-23 18:19 52.41282 13.73038 1334 ft 142 kts 300°
2026-04-23 18:20 52.42119 13.72342 1336 ft 142 kts
2026-04-23 18:20 52.42858 13.73287 1334 ft 142 kts 69°
2026-04-23 18:20 52.42656 13.74789 1334 ft 142 kts 134°
2026-04-23 18:20 52.41741 13.75133 1335 ft 142 kts 199°
2026-04-23 18:21 52.40951 13.74212 1355 ft 137 kts 221°
2026-04-23 18:21 52.40257 13.73147 1373 ft 137 kts 224°
2026-04-23 18:21 52.39568 13.72067 1377 ft 138 kts 224°
2026-04-23 18:21 52.38875 13.70980 1377 ft 138 kts 224°
2026-04-23 18:22 52.38181 13.69893 1378 ft 138 kts 224°
2026-04-23 18:22 52.37501 13.68786 1379 ft 137 kts 226°
2026-04-23 18:22 52.36856 13.67633 1381 ft 137 kts 228°
2026-04-23 18:22 52.36217 13.66461 1381 ft 138 kts 229°
2026-04-23 18:23 52.35797 13.65682 1379 ft 138 kts 229°
2026-04-23 18:23 52.34315 13.62920 1380 ft 138 kts 229°
2026-04-23 18:24 52.33048 13.60560 1381 ft 138 kts 229°
2026-04-23 18:24 52.32479 13.59321 1380 ft 135 kts 240°
2026-04-23 18:24 52.32053 13.57952 1382 ft 134 kts 244°
2026-04-23 18:25 52.31914 13.55696 1222 ft 62 kts 275°
2026-04-23 18:25 52.31945 13.55181 1296 ft 36 kts 276°
2026-04-23 18:25 52.31977 13.54801 1336 ft 31 kts 277°
2026-04-23 18:25 52.32002 13.54573 1371 ft 3 kts 278°
2026-04-23 18:26 52.32000 13.54584 1368 ft 2 kts 278°
2026-04-23 18:26 52.31958 13.54564 1401 ft 20 kts 277°
2026-04-23 18:26 52.31701 13.54417 1608 ft 67 kts 168°
2026-04-23 18:26 52.31515 13.55148 1764 ft 86 kts 80°
2026-04-23 18:27 52.32016 13.55746 1794 ft 109 kts 359°
2026-04-23 18:27 52.32591 13.54923 1776 ft 126 kts 284°
2026-04-23 18:27 52.32262 13.53632 1745 ft 135 kts 214°
2026-04-23 18:27 52.31357 13.53656 1723 ft 140 kts 147°
2026-04-23 18:28 52.31006 13.55051 1707 ft 141 kts 81°
2026-04-23 18:28 52.31646 13.56144 1701 ft 141 kts 15°
2026-04-23 18:28 52.32519 13.55646 1700 ft 140 kts 309°
2026-04-23 18:28 52.32592 13.54154 1706 ft 139 kts 242°
2026-04-23 18:29 52.31787 13.53458 1708 ft 138 kts 175°
2026-04-23 18:29 52.31082 13.54387 1711 ft 138 kts 109°
2026-04-23 18:29 52.31325 13.55812 1711 ft 138 kts 43°
2026-04-23 18:29 52.32221 13.56030 1709 ft 138 kts 336°
2026-04-23 18:30 52.32704 13.54750 1792 ft 147 kts 271°
2026-04-23 18:30 52.32153 13.53301 1803 ft 166 kts 211°
2026-04-23 18:30 52.31036 13.53304 1828 ft 167 kts 153°
2026-04-23 18:30 52.30443 13.54847 1832 ft 167 kts 96°
2026-04-23 18:31 52.30925 13.56488 1832 ft 167 kts 38°
2026-04-23 18:31 52.32035 13.56710 1833 ft 167 kts 340°
2026-04-23 18:31 52.32746 13.55303 1831 ft 167 kts 283°
2026-04-23 18:31 52.32402 13.53570 1831 ft 167 kts 225°
2026-04-23 18:32 52.31320 13.53136 1831 ft 167 kts 166°
2026-04-23 18:32 52.30522 13.54410 1830 ft 167 kts 109°
2026-04-23 18:32 52.30755 13.56191 1830 ft 167 kts 51°
2026-04-23 18:32 52.31787 13.56831 1830 ft 167 kts 355°
2026-04-23 18:33 52.32689 13.55754 1833 ft 167 kts 297°
2026-04-23 18:33 52.32616 13.53938 1824 ft 167 kts 239°
2026-04-23 18:33 52.31613 13.53080 1826 ft 167 kts 180°
2026-04-23 18:33 52.30664 13.53993 1827 ft 167 kts 123°
2026-04-23 18:34 52.30626 13.55811 1827 ft 167 kts 65°
2026-04-23 18:34 52.31550 13.56839 1829 ft 167 kts
2026-04-23 18:34 52.32588 13.56106 1830 ft 167 kts 309°
2026-04-23 18:34 52.32765 13.54329 1830 ft 167 kts 252°
2026-04-23 18:35 52.32346 13.52656 1868 ft 154 kts 263°
2026-04-23 18:35 52.32732 13.51183 1845 ft 146 kts 323°
2026-04-23 18:35 52.33721 13.50789 1653 ft 150 kts 353°
2026-04-23 18:35 52.34712 13.50523 1526 ft 132 kts 350°
2026-04-23 18:36 52.35545 13.50269 1528 ft 114 kts 348°
2026-04-23 18:36 52.36215 13.50019 1593 ft 83 kts 346°
2026-04-23 18:36 52.36562 13.49853 1666 ft 22 kts 98°
2026-04-23 18:36 52.36548 13.49869 1542 ft 22 kts 156°
2026-04-23 18:37 52.36381 13.49990 1562 ft 21 kts 74°
2026-04-23 18:37 52.36336 13.50021 1541 ft 1 kts 66°
2026-04-23 18:37 52.36346 13.50011 1538 ft 1 kts 66°
2026-04-23 18:37 52.36345 13.50012 1538 ft 1 kts 66°
2026-04-23 18:38 52.36344 13.50013 1537 ft 0 kts 71°
2026-04-23 18:38 52.36345 13.50013 1538 ft 0 kts 71°
2026-04-23 18:39 52.36345 13.50012 1538 ft 0 kts 71°
2026-04-23 18:39 52.36344 13.50013 1538 ft 0 kts 71°
2026-04-23 18:40 52.36345 13.50013 1538 ft 0 kts 71°
2026-04-23 18:40 52.36345 13.50012 1538 ft 0 kts 71°
2026-04-23 18:41 52.36345 13.50013 1538 ft 0 kts 71°
2026-04-23 18:41 52.36344 13.50013 1538 ft 0 kts 71°
2026-04-23 18:42 52.36345 13.50012 1538 ft 0 kts 71°
2026-04-23 18:42 52.36344 13.50013 1538 ft 0 kts 71°
2026-04-23 18:42 52.36345 13.50013 1538 ft 0 kts 71°
2026-04-23 18:43 52.36344 13.50013 1538 ft 0 kts 70°
2026-04-23 18:43 52.36345 13.50013 1538 ft 0 kts 22°
2026-04-23 18:43 52.36344 13.50013 1538 ft 0 kts 22°
2026-04-23 18:44 52.36345 13.50012 1538 ft 0 kts 349°
2026-04-23 18:44 52.36345 13.50013 1538 ft 0 kts 349°
2026-04-23 18:44 52.36357 13.50072 1484 ft 31 kts 58°
2026-04-23 18:45 52.36580 13.50762 1446 ft 97 kts 59°
2026-04-23 18:45 52.37046 13.51805 1678 ft 125 kts 47°
2026-04-23 18:45 52.37826 13.52456 1903 ft 136 kts 14°
2026-04-23 18:45 52.38823 13.52834 1983 ft 157 kts 13°
2026-04-23 18:46 52.39935 13.53254 1986 ft 167 kts 13°
2026-04-23 18:46 52.41072 13.53681 1973 ft 167 kts 13°
2026-04-23 18:46 52.42209 13.54087 1961 ft 167 kts 12°
2026-04-23 18:46 52.43352 13.54459 1950 ft 167 kts 11°
2026-04-23 18:47 52.44484 13.54793 1940 ft 167 kts 10°
2026-04-23 18:47 52.45648 13.55102 1949 ft 167 kts
2026-04-23 18:47 52.46787 13.55372 1977 ft 167 kts
2026-04-23 18:47 52.47958 13.55615 2005 ft 167 kts
2026-04-23 18:48 52.49116 13.55823 2035 ft 167 kts
2026-04-23 18:48 52.50276 13.56000 2064 ft 167 kts
2026-04-23 18:48 52.51423 13.56143 2092 ft 167 kts
2026-04-23 18:48 52.52585 13.56257 2116 ft 167 kts
2026-04-23 18:49 52.53567 13.56923 1918 ft 154 kts 66°
2026-04-23 18:49 52.53740 13.58530 1728 ft 132 kts 56°
2026-04-23 18:49 52.54428 13.58493 1593 ft 107 kts 291°
2026-04-23 18:49 52.54102 13.57804 1537 ft 83 kts 182°
2026-04-23 18:50 52.53772 13.57799 1324 ft 60 kts 184°
2026-04-23 18:50 52.53632 13.57345 1163 ft 42 kts 328°
2026-04-23 18:50 52.54008 13.57343 1215 ft 71 kts
2026-04-23 18:50 52.54686 13.57394 1172 ft 129 kts
2026-04-23 18:51 52.55749 13.57455 1015 ft 167 kts
2026-04-23 18:51 52.56913 13.57509 882 ft 168 kts
2026-04-23 18:51 52.58079 13.57546 854 ft 168 kts
2026-04-23 18:51 52.59243 13.57611 661 ft 167 kts
2026-04-23 18:52 52.60349 13.57970 536 ft 157 kts 14°
2026-04-23 18:52 52.60737 13.56933 430 ft 116 kts 217°
2026-04-23 18:52 52.60276 13.57208 285 ft 60 kts 113°
2026-04-23 18:52 52.60149 13.57591 238 ft 24 kts 139°
2026-04-23 18:53 52.60100 13.57668 229 ft 2 kts 309°
2026-04-23 18:53 52.60097 13.57665 224 ft 1 kts 314°
2026-04-23 18:53 52.60098 13.57664 221 ft 0 kts 313°